Wind_Speed
10 10 12 18 20 20 21 21 20 19 18 19 22 22 23 26 23 17 17 21 24 20 17 15 12 12 11 10 12 15 19 22 23 20 19 20 19 18 17 17 19 21 22 21 19 18 16 14 14 14 15 15 16 18 21 23 26 28 30 32 33 33 34 34 35 36 36 36 37 37 38 38 38 39 39 40 41 41 40 40 39 39 40 41 42 42
10 14 18 20 19 20 20 20 20 19 18 19 22 23 23 26 24 17 16 22 24 20 16 14 12 9 9 16 17 16 18 21 20 18 19 20 18 17 16 16 18 20 20 19 17 17 16 16 16 16 16 17 19 21 23 26 28 29 30 31 32 33 34 35 35 36 37 37 37 37 37 37 36 37 37 38 38 38 38 38 37 37 36 37 39 41
12 19 21 19 19 20 19 19 19 18 18 20 23 25 27 28 27 21 18 19 21 20 17 16 16 10 10 18 18 15 17 17 17 18 18 19 19 18 17 18 20 21 22 22 22 22 23 24 24 25 26 26 26 27 28 29 30 31 31 32 33 34 34 34 35 36 36 36 35 35 34 34 34 35 35 36 36 35 34 34 35 36 36 36 37 39
17 20 19 18 18 18 18 18 17 16 18 21 25 27 29 30 27 26 25 20 20 20 16 19 21 12 11 20 17 13 16 16 15 17 18 19 20 20 20 22 23 25 25 26 27 28 30 31 33 35 36 36 35 34 33 33 33 32 32 32 32 32 33 33 34 34 34 34 33 32 32 32 33 34 34 35 35 34 33 33 33 35 36 38 39 39
19 18 18 18 18 18 18 18 19 21 21 22 27 28 30 32 25 25 27 23 24 20 14 22 24 16 17 20 15 12 13 15 15 14 17 19 21 21 21 24 26 26 27 27 29 30 31 34 36 38 40 42 43 41 39 38 35 34 32 30 29 28 28 28 29 29 29 29 29 29 30 30 31 31 31 32 32 33 34 34 33 33 35 37 39 40
19 18 19 19 19 19 20 21 23 26 24 24 27 27 31 32 25 24 24 22 26 22 16 20 16 18 27 23 15 14 11 13 14 12 16 19 20 21 22 25 26 25 27 28 30 32 33 34 36 38 40 43 45 44 42 40 37 34 31 29 28 27 27 26 26 26 27 27 27 28 28 28 29 29 30 30 31 32 33 34 34 34 35 36 38 39
20 20 20 20 21 20 22 24 26 27 26 26 27 28 31 29 24 25 22 19 22 21 17 13 6 15 30 27 19 18 15 14 14 11 16 19 18 21 21 24 24 23 25 27 29 32 32 34 36 37 39 40 40 40 38 37 36 33 30 28 27 27 27 27 26 26 26 27 27 27 28 27 28 29 29 29 30 31 31 32 33 34 35 35 35 36
20 21 20 21 22 22 26 27 26 27 25 25 27 29 31 28 24 23 20 18 21 21 13 7 8 13 21 24 20 19 19 18 17 15 16 18 18 20 22 23 24 23 25 27 29 31 32 34 33 33 34 33 33 33 32 31 32 31 29 28 28 28 28 28 28 28 28 28 28 28 29 29 29 30 30 30 31 31 31 32 32 32 33 33 34 34
20 22 22 23 24 25 27 25 25 26 24 25 25 29 33 28 24 22 18 19 21 18 6 4 12 11 18 25 19 18 23 21 20 20 17 17 17 20 23 24 23 21 22 23 24 26 25 24 26 28 29 29 29 30 29 28 27 27 27 27 28 28 29 30 30 31 31 32 32 33 33 33 32 32 32 32 32 32 32 33 32 32 32 32 32 33
19 23 23 24 25 25 23 22 24 23 24 26 25 30 33 26 26 21 16 20 19 12 4 3 10 8 17 28 19 19 26 24 24 23 17 14 15 20 21 20 19 19 20 22 24 24 20 20 26 31 30 28 28 29 28 26 24 24 25 25 28 29 31 32 32 33 34 35 36 36 36 36 36 35 35 34 33 32 32 33 32 32 33 32 32 32
16 20 23 24 24 24 22 20 22 22 25 27 26 32 34 28 28 18 14 21 12 5 5 5 12 11 11 18 18 23 26 23 24 23 15 9 10 15 13 12 17 20 21 22 24 24 23 27 33 33 32 31 29 28 26 25 24 24 24 25 27 29 31 33 33 34 34 34 35 36 36 37 37 37 37 36 35 34 34 34 34 34 33 33 33 32
15 17 23 24 24 26 24 21 21 22 25 25 25 33 33 29 29 17 16 19 4 5 11 10 19 17 9 13 17 24 23 17 17 17 12 10 11 12 9 13 18 20 20 21 22 22 23 28 32 33 34 33 31 29 26 26 26 26 26 27 28 29 30 32 33 33 32 32 32 32 33 34 34 35 35 35 35 34 34 34 35 36 36 36 34 33
16 15 20 22 25 29 27 24 23 22 25 24 27 34 25 17 18 11 11 10 3 12 18 17 22 16 13 15 16 20 20 13 11 12 12 13 15 14 13 16 20 21 22 21 21 22 23 27 30 31 32 31 30 29 27 27 28 28 29 29 30 30 30 32 33 32 31 30 30 30 31 31 32 32 32 33 34 34 35 36 36 37 39 39 38 36
20 16 20 22 23 29 28 26 25 26 26 24 28 30 15 5 7 5 5 4 7 19 26 27 21 13 14 16 16 21 21 15 13 14 13 15 16 15 16 19 22 24 22 19 19 21 23 24 26 28 29 28 28 27 27 27 27 28 29 30 31 32 32 32 33 33 32 30 29 29 29 30 32 32 33 34 35 36 37 39 40 40 41 42 39 37
21 15 21 21 21 28 27 21 21 24 23 22 27 24 12 7 5 4 5 3 8 20 30 29 15 9 15 19 24 28 19 17 19 20 20 20 19 18 18 20 22 23 21 19 20 21 22 24 25 26 27 27 28 28 28 28 28 29 29 30 31 32 33 33 34 35 35 33 31 29 29 29 31 33 34 35 37 38 39 40 42 42 43 43 40 38
19 17 19 18 21 29 26 19 20 21 19 21 26 22 16 16 10 10 13 15 15 14 19 20 15 19 25 27 29 23 16 20 25 29 32 30 26 22 21 21 20 20 21 22 24 24 26 27 28 30 31 32 33 33 34 34 36 37 37 37 38 38 37 36 35 35 35 35 34 33 33 33 35 37 38 40 41 42 42 43 43 42 44 45 42 39
19 20 20 18 24 29 23 19 19 19 19 22 26 24 22 21 15 13 15 17 13 6 10 15 20 30 30 27 27 22 23 30 33 37 39 34 29 27 27 27 26 26 28 30 33 36 38 39 40 41 42 44 46 46 48 48 49 51 52 53 52 51 49 45 42 40 38 38 37 37 37 38 41 44 45 46 47 47 46 45 44 44 44 43 41 39
19 23 22 22 27 29 23 19 19 18 21 23 25 27 24 18 14 11 8 8 6 3 9 16 24 32 25 19 27 29 29 33 35 37 35 31 31 32 34 36 37 39 40 41 45 48 51 54 55 55 56 57 60 62 63 63 63 64 65 65 65 63 61 58 54 51 49 49 48 47 46 47 51 53 52 51 51 51 50 47 45 45 44 42 41 40
22 22 22 25 29 28 23 21 20 19 22 24 26 28 21 12 12 11 7 7 6 3 6 14 24 28 20 17 25 28 26 28 30 32 32 34 37 39 42 44 46 48 51 53 57 60 63 65 66 68 69 69 71 72 72 72 70 69 68 68 67 65 63 61 59 56 56 56 57 57 57 57 58 57 54 53 53 52 51 49 47 45 45 44 43 43
23 17 18 26 30 27 25 25 23 22 24 27 28 28 22 13 13 17 16 12 8 5 5 9 13 14 14 17 20 21 24 29 32 35 38 42 44 47 51 52 54 56 60 64 67 69 71 72 73 74 74 74 72 71 70 68 65 64 62 61 59 58 56 55 54 54 54 55 56 57 56 56 55 53 52 52 52 51 51 50 48 46 45 46 46 46
25 17 19 30 33 28 26 25 24 22 23 28 31 29 26 22 20 21 23 20 13 7 4 3 6 11 16 17 18 19 23 29 37 44 47 49 52 55 57 59 61 63 66 68 69 70 71 71 73 73 71 69 65 62 60 56 53 52 51 50 49 48 48 47 46 47 47 49 50 51 52 51 49 48 48 49 49 50 50 49 48 47 47 47 47 48
26 19 22 33 34 29 28 27 26 24 23 29 33 30 29 30 26 16 14 21 22 16 11 8 8 17 24 23 20 21 25 33 42 49 52 56 59 60 61 61 62 64 66 66 64 64 65 66 67 67 65 62 58 56 53 49 47 46 45 44 44 43 43 43 43 42 42 43 44 45 46 46 45 44 45 47 48 48 48 48 48 49 49 48 48 49
25 20 25 33 31 28 29 28 28 27 29 33 33 32 32 28 23 14 12 21 29 29 27 18 11 18 25 22 20 25 32 40 46 52 58 62 63 63 64 64 64 66 66 63 60 58 59 61 61 60 59 57 55 53 51 49 48 46 46 44 43 42 42 42 42 41 40 40 40 41 41 42 42 42 42 43 45 45 46 46 46 47 49 50 50 50
22 19 27 34 33 34 35 32 31 30 33 37 34 31 25 17 17 20 21 25 29 30 26 14 8 17 23 21 26 37 43 48 50 54 60 66 69 69 68 67 67 68 66 62 58 57 58 59 59 59 58 57 55 54 52 51 50 48 48 46 44 43 42 42 42 42 41 40 40 40 40 41 41 40 40 40 41 42 43 44 45 45 46 48 49 49
21 19 23 25 25 30 32 32 35 37 38 39 35 30 26 26 29 30 27 21 17 19 21 12 11 25 33 34 42 48 50 53 55 57 63 69 72 72 69 68 67 65 61 59 58 59 60 60 60 60 59 59 58 57 55 53 52 50 49 48 46 45 43 43 43 43 43 43 43 44 44 43 43 42 42 41 41 42 42 43 44 44 45 45 46 46
24 23 21 15 11 12 16 21 30 37 39 38 35 32 33 34 32 28 24 17 10 18 28 24 24 38 44 44 48 50 50 55 60 63 69 72 73 72 70 68 66 62 59 58 60 62 62 61 61 60 59 59 59 58 56 53 52 51 50 49 48 46 46 45 45 45 46 46 47 48 48 48 47 46 45 44 43 43 43 43 43 43 44 45 45 45
28 27 23 19 17 18 23 27 29 31 32 34 34 35 35 32 27 25 23 19 18 24 31 32 34 44 48 46 46 49 54 62 68 70 72 73 72 71 69 66 64 62 60 61 62 63 63 63 62 60 60 59 59 59 55 52 50 49 48 48 47 47 47 47 47 47 48 47 47 48 49 49 48 48 47 46 46 45 45 45 45 44 42 42 43 44
29 29 27 27 28 29 32 32 30 28 27 29 32 33 34 30 27 27 25 26 27 22 26 37 43 44 47 44 44 51 62 68 71 71 70 70 69 68 67 65 64 63 62 62 63 63 64 64 63 62 62 61 61 60 55 50 48 47 46 46 45 45 46 46 47 48 48 48 47 47 47 47 46 46 45 45 45 46 46 46 46 45 42 40 40 41
28 29 31 34 34 35 33 30 32 32 28 29 31 31 29 26 26 30 30 31 34 27 31 46 51 45 45 42 45 57 67 69 70 71 70 70 68 67 67 66 64 63 63 63 64 65 65 65 64 63 63 63 63 60 54 49 48 47 45 44 43 43 43 44 45 46 47 47 46 46 46 45 45 44 44 44 44 44 45 45 44 44 42 40 39 38
28 30 34 36 39 40 35 33 35 34 32 33 30 23 21 24 29 32 33 36 40 41 45 51 48 43 41 42 51 64 70 72 74 74 72 71 70 69 68 66 64 63 63 66 67 66 65 65 65 65 64 65 63 58 52 50 49 47 44 43 43 43 44 44 45 46 47 46 45 46 46 45 44 43 42 42 42 41 42 43 42 42 40 39 38 37
29 32 34 36 41 42 39 39 38 36 36 32 22 18 23 31 36 37 37 41 45 47 51 50 43 42 42 48 60 70 74 76 76 74 72 71 71 70 68 65 63 62 65 68 68 67 66 66 67 66 65 63 59 54 51 51 51 48 45 44 44 44 44 45 46 48 48 47 46 46 46 44 43 42 41 41 41 41 41 41 40 39 38 38 38 38
29 31 34 37 39 41 43 42 40 40 38 27 18 23 31 34 38 40 42 46 48 49 52 50 44 44 50 60 70 76 77 76 75 73 72 71 70 68 64 61 60 64 69 71 70 69 68 67 66 65 62 56 53 52 52 53 52 49 46 45 44 44 45 46 48 48 47 46 45 45 45 43 40 39 40 40 40 40 39 38 37 37 37 38 39 39
29 31 35 33 32 38 42 41 43 42 28 16 19 26 28 32 39 44 48 52 52 52 52 47 42 47 59 70 76 77 76 74 74 73 72 71 68 63 60 60 64 71 73 72 71 69 67 64 61 58 54 50 50 53 54 54 52 51 48 45 45 45 46 48 48 46 44 43 43 44 43 41 38 37 37 37 37 37 35 35 34 35 36 38 38 38
29 31 33 28 27 35 38 40 42 31 13 17 28 25 21 34 44 48 54 56 57 58 53 43 44 55 67 74 75 75 74 73 73 72 71 67 60 55 58 65 70 73 72 69 68 64 59 56 54 51 50 50 52 54 55 55 55 53 49 45 45 46 47 49 47 44 41 41 43 43 40 37 37 36 35 35 35 34 33 33 33 34 35 37 37 37
31 33 32 29 28 33 36 35 28 16 15 28 31 21 22 35 43 49 56 58 59 58 47 42 53 66 71 73 72 72 73 73 73 73 69 62 54 54 63 69 70 68 66 64 61 56 52 52 52 52 52 54 54 55 56 58 56 53 48 45 46 47 48 48 45 41 40 41 42 41 37 35 35 34 34 34 34 34 33 32 33 34 35 35 35 35
34 32 31 32 28 28 33 28 17 17 26 27 20 20 30 39 45 52 60 64 60 48 40 50 65 71 70 71 71 71 72 74 74 73 67 61 59 62 66 66 65 64 62 60 56 53 53 53 53 53 53 54 55 56 59 58 53 49 47 46 46 47 47 44 41 40 40 41 41 39 35 33 33 33 34 34 34 34 33 32 33 33 33 34 34 35
33 32 33 30 23 22 28 28 25 27 27 18 16 25 36 44 50 54 61 67 57 43 48 63 70 70 70 71 71 72 74 76 77 74 69 66 67 67 65 65 64 63 60 57 55 53 53 53 52 53 53 55 57 58 57 53 48 47 46 46 45 45 43 41 40 40 40 40 40 36 33 32 33 33 34 34 34 34 33 32 32 32 32 33 33 34
33 33 31 25 20 22 25 26 23 18 14 14 21 30 36 46 54 58 61 61 52 49 60 69 69 70 73 71 72 74 74 76 79 77 72 70 69 67 67 66 64 60 58 56 54 52 51 51 53 54 55 58 58 56 51 48 47 47 46 44 43 42 40 39 40 40 40 40 38 35 32 32 33 33 34 34 33 33 34 34 33 32 32 33 33 33
34 34 30 23 23 26 26 22 16 10 14 23 28 34 41 51 61 60 50 46 53 61 66 68 68 71 71 71 72 72 67 69 78 80 75 72 70 68 68 67 63 59 56 53 49 49 51 54 56 58 59 59 56 52 48 48 47 45 43 42 40 39 39 40 40 40 40 40 38 34 31 31 32 33 33 32 32 33 35 35 33 32 33 34 36 36
38 36 30 27 29 30 27 23 21 18 22 28 32 40 50 59 63 51 32 37 60 69 65 66 68 69 69 70 70 68 63 64 72 78 76 73 71 69 67 65 61 58 54 51 49 51 55 58 60 61 59 55 52 50 48 47 44 41 40 39 39 39 40 40 39 40 41 40 37 33 30 31 32 32 32 31 32 34 35 34 33 34 36 37 37 38
40 36 32 32 34 32 25 24 30 30 25 28 39 51 56 59 56 41 32 48 67 67 64 67 67 66 68 67 65 66 66 64 67 71 72 71 71 70 67 63 60 58 56 55 55 58 60 60 58 56 52 51 51 49 45 42 40 39 39 39 39 39 39 39 39 39 40 38 35 31 30 30 31 31 30 30 32 35 35 33 35 36 37 39 41 41
36 35 34 33 33 31 27 27 31 31 30 38 51 57 55 53 49 44 49 60 64 62 64 66 64 64 65 63 64 66 66 66 67 68 68 69 69 68 66 64 63 61 59 59 59 60 59 57 54 52 52 53 52 47 41 39 38 38 38 39 38 38 38 37 37 37 37 36 33 30 30 30 30 30 30 30 32 34 34 34 36 36 38 44 44 38
29 31 32 31 31 30 28 24 21 27 40 49 52 54 53 50 47 51 58 61 60 62 64 64 63 64 62 62 65 65 66 68 67 67 68 67 66 66 65 62 61 60 60 60 59 56 55 55 56 56 57 56 51 43 38 38 39 37 37 37 37 37 37 36 34 35 35 33 31 30 29 29 29 29 29 30 32 33 35 36 36 36 41 45 37 26
27 27 28 32 32 26 23 23 24 34 47 48 47 51 55 52 52 56 61 63 63 63 62 62 63 62 61 63 65 64 65 67 66 66 67 66 65 64 60 56 56 58 58 57 56 56 57 59 60 59 56 53 47 41 39 40 39 37 35 35 36 36 36 34 32 32 32 32 32 30 28 28 28 27 28 30 32 33 36 37 36 38 43 41 28 17
27 28 27 34 37 32 32 36 38 41 47 49 51 55 57 56 58 60 61 63 64 63 61 62 62 62 62 63 63 64 65 65 66 67 66 65 64 60 54 53 56 57 57 56 57 59 59 57 55 53 50 46 43 41 41 40 39 36 35 34 34 35 34 32 30 31 31 31 31 29 28 27 27 26 28 30 31 33 35 36 36 40 43 37 23 14
27 30 31 34 39 44 49 49 46 46 51 56 57 56 57 60 62 61 62 63 64 63 62 61 61 63 64 63 62 64 65 65 67 67 65 63 61 55 53 56 58 58 57 56 57 57 54 52 50 49 49 48 46 45 43 40 36 34 34 33 32 33 33 30 29 30 30 30 29 27 27 27 26 27 29 30 30 32 34 34 35 39 39 33 21 13
31 34 37 38 41 48 54 56 55 55 56 57 57 57 59 62 62 61 62 62 62 63 62 62 62 63 64 65 64 65 65 66 66 66 64 61 58 56 57 60 60 59 57 56 56 55 53 52 52 51 51 51 49 47 43 38 33 32 34 33 31 31 31 29 27 29 29 29 28 26 26 27 27 28 30 30 31 33 32 31 34 37 35 28 20 11
35 38 41 44 46 48 52 57 61 62 61 60 60 61 63 64 63 62 61 60 61 62 62 63 63 64 65 66 67 67 68 67 64 63 62 59 58 59 61 62 61 60 58 57 56 54 53 52 52 50 49 47 45 43 38 33 31 32 33 31 27 28 30 28 26 27 28 28 28 26 26 27 28 29 29 30 32 32 29 29 34 35 30 23 17 11
35 40 45 50 53 53 54 57 62 68 69 66 63 62 63 63 63 63 60 60 61 61 62 64 65 65 66 67 67 67 68 66 64 61 58 57 60 63 64 63 61 59 58 57 55 53 52 50 48 46 44 42 40 37 33 31 30 29 28 25 24 26 28 27 25 26 27 27 28 27 27 27 27 28 28 29 30 29 26 29 34 33 26 19 14 12
36 43 48 52 55 55 55 55 56 61 66 65 63 63 63 62 62 62 60 60 60 61 63 65 66 67 69 69 67 65 65 65 62 59 57 59 62 63 62 61 59 58 57 55 53 51 49 47 44 42 39 37 36 34 31 29 28 25 24 23 24 25 26 26 26 26 25 26 28 28 27 27 27 27 27 29 29 26 23 26 32 32 25 17 13 13
38 44 47 49 51 52 53 53 52 54 59 62 62 61 61 61 61 60 58 58 60 61 63 66 68 70 72 72 69 65 64 63 61 60 61 63 62 60 60 60 59 58 56 53 51 50 48 45 42 38 36 35 34 30 28 26 24 22 21 21 21 22 24 26 27 26 24 25 27 27 26 27 26 26 26 27 27 24 22 25 30 30 23 17 13 13
Wind_Direction
9 355 12 25 20 20 20 17 17 13 12 10 2 4 360 351 356 5 4 357 349 352 5 5 358 352 345 340 329 326 336 340 341 347 349 345 345 348 352 358 359 359 1 0 354 347 341 334 323 303 290 283 281 281 279 281 283 284 286 288 289 289 289 288 287 286 285 285 285 285 285 286 287 288 289 290 291 291 291 289 287 286 283 281 279 276
2 15 29 27 19 20 20 16 14 11 10 9 3 2 1 354 353 2 8 359 349 344 350 356 353 341 338 341 330 323 330 332 337 345 343 340 342 344 350 354 353 354 355 352 346 341 336 329 322 312 304 297 292 290 290 291 292 291 290 289 287 286 285 284 284 284 285 286 286 285 286 288 289 291 291 292 292 292 292 291 289 287 282 280 278 276
20 30 30 21 17 18 17 16 14 9 6 7 5 2 2 357 350 352 1 2 351 339 337 343 345 328 317 339 338 324 328 332 339 343 338 337 339 338 341 344 345 344 343 342 341 338 336 334 332 329 325 319 312 305 303 301 298 296 293 290 289 287 287 287 287 287 288 289 289 290 292 293 293 293 293 293 293 293 293 291 287 283 281 279 278 275
34 34 25 19 18 15 13 14 13 10 9 8 7 3 0 357 350 344 346 355 354 343 334 334 342 341 327 340 340 325 330 338 337 337 336 333 331 333 337 342 343 343 342 341 340 339 339 339 336 334 332 330 326 320 317 315 310 305 301 297 295 294 295 294 294 294 294 295 296 297 296 296 295 295 295 294 294 294 292 289 286 282 280 278 277 275
38 34 23 20 16 13 11 9 9 10 12 10 6 4 359 355 348 339 337 344 350 350 339 335 344 352 345 345 343 329 330 334 330 331 333 327 326 332 338 344 344 342 342 341 342 341 339 337 335 333 332 330 328 326 324 322 319 314 310 307 304 302 301 300 300 299 299 299 298 298 297 297 298 298 299 299 297 296 292 291 290 287 283 280 279 276
38 32 25 21 14 12 9 6 9 9 8 8 4 1 358 352 345 340 337 336 345 350 345 345 351 343 345 356 353 336 332 330 328 325 328 326 326 334 340 343 342 339 340 341 340 339 336 334 332 331 329 327 327 327 326 325 323 317 313 312 311 310 309 308 308 306 304 302 300 300 300 301 303 302 304 304 302 300 297 296 294 291 288 285 282 279
34 30 26 22 15 12 10 10 11 7 3 3 359 357 355 351 344 341 338 334 340 342 337 347 360 327 340 359 357 341 341 338 332 327 329 329 329 335 339 339 337 336 338 337 335 333 330 327 325 325 324 324 326 326 327 327 323 317 313 314 314 313 314 312 312 310 308 307 305 304 304 305 307 306 307 309 307 306 304 300 297 295 292 289 286 282
31 28 26 21 17 12 10 11 8 4 1 357 354 354 352 349 346 341 338 335 333 333 329 334 345 322 328 350 359 347 346 346 339 334 332 329 330 335 337 338 335 333 331 330 329 325 322 322 320 319 319 319 321 322 323 323 320 316 314 315 315 313 313 312 311 310 309 308 307 306 306 306 307 307 307 310 310 310 309 305 304 302 299 295 291 287
28 24 22 18 17 14 10 9 3 360 357 352 351 351 348 346 346 342 339 336 332 334 332 312 346 334 315 338 1 354 348 351 343 339 331 323 332 339 337 335 329 320 319 319 317 315 318 321 314 308 309 311 314 315 316 317 316 313 310 309 309 306 305 305 305 306 305 305 305 304 304 303 304 305 305 306 307 310 310 308 308 307 305 302 297 292
23 20 18 13 15 15 9 4 358 357 353 349 349 346 345 344 343 343 342 339 333 329 323 317 357 358 316 331 357 358 352 356 348 344 338 327 340 342 332 324 309 292 295 300 299 300 303 306 301 300 304 307 309 310 311 312 309 305 303 300 300 299 299 300 300 301 302 302 302 302 302 302 302 303 302 302 304 306 307 307 309 309 307 305 303 298
19 18 15 10 12 11 9 5 358 355 351 348 346 343 343 344 345 346 341 341 337 322 336 329 343 349 318 328 355 2 360 360 349 346 345 334 341 341 322 294 286 283 292 299 298 299 298 300 302 302 305 304 304 305 304 303 300 296 294 293 293 294 295 297 298 300 300 301 301 300 300 301 300 300 300 300 301 303 304 305 307 307 306 306 304 300
15 16 12 9 8 5 4 3 359 356 351 348 345 345 347 346 347 346 340 348 357 309 331 321 325 330 297 307 347 4 4 357 343 337 327 304 302 317 299 275 283 292 304 305 299 299 298 300 302 301 302 302 301 300 298 297 296 294 292 290 289 289 290 291 293 295 298 299 299 299 300 300 300 300 300 300 300 302 304 305 307 307 306 305 303 300
15 14 8 7 6 3 359 357 359 357 352 350 348 352 357 351 350 348 338 346 285 306 323 317 319 313 289 307 340 356 350 336 329 328 311 291 285 287 285 286 294 301 305 302 297 297 297 298 299 298 299 299 297 296 293 293 292 291 290 288 287 287 286 286 286 287 289 291 293 295 296 297 297 298 299 300 300 302 303 306 308 310 309 305 302 300
11 11 4 2 5 4 358 353 354 353 353 354 353 357 4 4 359 328 307 321 293 309 314 313 313 298 304 331 337 330 320 297 304 320 306 292 286 281 282 290 296 296 294 298 304 306 305 302 299 297 298 296 295 293 290 288 286 286 286 285 285 284 284 284 282 281 281 281 283 285 289 292 293 293 294 297 299 299 300 302 304 307 309 306 300 298
6 0 357 357 1 2 358 354 352 348 351 354 353 356 354 348 345 271 281 289 286 301 305 307 307 290 312 327 320 316 303 271 289 310 308 299 293 290 293 294 292 289 288 297 307 310 313 311 304 301 299 297 296 294 293 293 291 290 289 290 291 288 285 282 279 278 277 275 275 276 279 284 287 288 290 292 296 297 297 298 299 301 305 304 299 295
2 355 358 358 358 358 355 353 353 352 354 353 352 353 342 331 310 267 276 278 279 296 301 300 294 292 304 309 306 304 284 273 286 299 305 307 304 303 307 308 305 302 303 306 308 309 311 311 309 308 306 305 304 303 303 304 304 304 302 302 302 300 297 291 284 279 275 273 272 272 276 280 285 287 289 292 295 297 297 295 294 294 298 299 295 292
356 356 5 6 359 358 356 355 357 356 355 351 351 351 342 333 314 284 281 283 285 288 287 291 294 299 306 307 301 291 282 284 287 294 302 310 313 315 319 322 323 320 318 317 317 317 316 316 315 314 313 313 312 311 310 309 309 309 308 308 307 306 304 299 294 287 282 280 277 275 278 284 289 291 292 295 297 298 297 295 291 289 291 291 289 287
348 348 1 6 359 360 1 357 358 358 355 352 351 350 345 337 321 299 283 297 307 266 278 289 294 302 309 303 296 294 289 289 292 299 306 310 313 319 324 327 328 326 323 321 320 320 320 319 318 317 316 315 314 314 314 313 312 311 310 310 309 308 306 304 301 296 291 288 286 284 283 285 290 293 294 295 296 294 293 293 290 288 286 285 283 283
350 341 351 1 360 360 2 359 359 358 354 351 349 348 346 334 314 302 289 301 305 273 282 287 291 300 301 291 298 305 308 308 309 312 316 318 321 325 327 327 326 325 324 324 324 325 324 324 323 321 320 319 318 318 318 318 316 315 313 312 311 311 309 307 305 302 298 295 293 293 291 289 290 293 293 292 291 289 288 288 287 285 284 282 281 281
353 338 336 352 358 0 1 360 359 356 352 349 347 347 346 331 309 304 296 284 273 271 289 291 293 291 280 283 300 313 322 327 331 330 328 329 329 330 329 328 327 327 327 328 330 330 329 328 327 326 326 325 324 323 322 322 320 318 317 315 313 312 310 308 306 305 303 301 299 298 297 295 293 292 291 288 285 284 284 284 282 281 280 280 279 279
353 339 326 343 356 2 2 0 357 352 347 345 343 344 343 334 324 315 301 290 279 265 268 294 290 274 270 280 292 305 319 329 335 335 333 333 333 332 332 333 333 334 333 334 333 332 331 330 328 328 328 327 326 325 324 323 322 320 319 317 315 313 311 308 306 304 302 301 300 299 298 297 295 290 286 282 281 280 280 280 278 276 275 275 276 276
352 343 331 341 351 358 358 356 355 351 345 343 341 340 339 332 325 316 297 298 296 283 277 283 282 280 279 278 284 303 320 325 331 334 333 334 335 336 337 338 338 338 337 336 335 334 332 330 329 328 327 326 326 325 325 324 323 322 320 318 315 312 310 308 305 303 301 300 299 298 298 297 295 291 285 280 279 277 276 275 274 272 271 270 271 272
353 349 340 341 346 352 355 354 353 350 344 343 340 335 334 330 321 304 283 300 300 290 287 286 278 282 280 276 288 309 317 319 324 331 334 335 337 338 338 337 337 336 334 333 333 332 331 329 328 326 325 326 326 326 326 325 324 323 321 319 315 311 308 306 304 301 300 299 299 299 298 297 297 294 289 285 283 281 279 277 275 273 271 269 267 267
357 353 345 343 343 348 352 353 352 348 343 339 336 333 332 324 310 298 292 296 292 287 292 293 274 286 289 291 302 307 307 306 311 318 326 331 333 334 335 334 333 332 331 331 331 330 329 328 327 326 327 327 327 327 326 325 324 323 321 319 316 312 308 305 303 300 297 296 296 296 297 297 298 298 296 293 291 289 287 285 283 280 278 274 270 267
358 356 351 347 344 345 349 351 348 344 341 338 333 329 323 313 309 309 312 311 289 287 307 310 282 292 298 301 303 304 302 303 307 313 320 327 331 332 332 331 330 330 330 330 330 329 329 329 329 330 330 331 330 329 327 325 324 322 321 320 317 315 312 308 306 303 300 297 295 295 295 295 295 295 296 296 295 294 293 292 291 289 288 285 279 273
354 355 357 355 345 334 329 332 334 331 331 333 330 321 314 314 316 321 330 333 312 309 315 306 291 298 307 309 307 308 311 315 319 322 326 330 331 330 330 329 329 330 330 329 329 329 330 330 330 331 331 332 331 329 326 324 323 321 320 320 319 317 316 314 311 309 307 304 301 298 297 296 295 294 293 293 293 294 294 294 294 294 293 292 289 284
350 350 353 348 336 325 320 325 332 329 323 323 323 316 312 315 319 326 339 343 332 316 308 308 307 306 311 314 312 316 324 327 329 330 330 331 330 328 328 328 329 329 328 327 327 327 328 328 328 330 331 331 330 328 325 322 321 321 320 319 318 317 316 315 314 312 311 309 306 303 300 298 297 296 295 294 293 292 293 293 293 293 295 294 293 290
347 345 346 340 334 334 334 335 339 335 323 318 316 312 312 314 316 324 340 349 345 322 302 318 324 311 306 311 315 323 329 330 330 331 330 329 328 328 327 327 327 326 324 324 324 325 326 326 327 328 328 328 327 327 324 321 321 321 320 319 318 317 316 315 314 313 312 311 310 307 304 300 298 296 295 295 294 292 293 294 291 291 293 294 293 292
346 344 342 338 335 339 344 343 342 339 330 320 313 308 311 315 320 329 336 343 347 333 315 326 328 312 302 308 315 324 329 329 329 329 328 328 327 326 326 325 324 323 322 323 323 324 324 324 324 325 325 325 325 325 323 321 322 322 320 319 318 316 315 314 313 313 313 312 312 311 308 304 300 297 294 294 294 292 293 293 291 289 291 292 292 291
346 344 343 340 335 340 349 347 343 340 330 319 311 306 312 317 321 328 331 336 341 336 329 332 326 308 301 308 317 324 327 327 327 326 326 326 325 325 325 324 323 323 322 323 323 323 323 322 322 322 322 322 322 322 323 323 323 322 321 319 318 316 315 315 315 315 314 313 313 312 311 307 302 298 296 295 294 293 292 291 290 289 290 291 291 290
347 345 345 341 334 340 350 346 341 339 330 318 303 298 312 318 321 326 331 336 339 336 335 334 321 305 307 316 323 325 325 324 324 324 325 325 325 326 325 324 324 323 322 321 321 321 321 321 320 320 321 321 321 322 323 324 325 324 321 319 317 316 315 316 315 315 314 313 313 313 312 309 303 298 297 297 297 295 294 292 291 290 290 290 291 290
350 346 346 343 334 337 346 344 340 338 329 313 304 316 325 331 332 333 335 338 341 338 335 330 319 315 319 323 323 323 322 323 324 324 325 325 326 326 325 325 325 322 321 321 321 321 321 321 321 321 322 322 323 324 322 322 324 324 322 318 316 315 316 316 315 314 313 313 314 314 312 310 306 301 298 298 297 297 296 295 293 290 290 291 292 292
351 346 346 345 330 330 342 343 337 335 328 314 322 327 331 339 338 332 332 337 340 338 332 324 318 320 321 321 322 323 323 324 324 324 324 324 326 327 326 325 322 321 321 321 321 321 322 323 324 324 325 326 326 323 320 319 322 323 321 318 316 315 316 316 316 316 315 315 316 315 311 309 308 305 302 300 299 299 298 296 293 292 293 294 294 293
350 347 347 345 327 327 339 339 334 336 335 321 322 317 325 341 341 333 331 334 335 332 327 318 314 318 321 322 324 324 324 324 323 321 323 325 328 327 325 322 321 322 323 322 323 324 325 326 327 328 329 328 324 319 318 318 320 321 320 317 316 316 317 317 317 317 317 317 318 316 311 308 308 307 305 304 303 301 299 297 296 296 296 295 295 294
349 348 348 346 334 329 335 339 338 338 325 319 315 306 313 328 332 327 324 327 331 329 322 315 316 320 323 324 324 324 323 323 321 321 324 327 327 324 322 321 323 325 325 326 327 328 327 328 329 329 328 324 319 317 317 319 320 320 319 317 317 317 317 317 317 319 319 318 319 317 311 309 310 310 309 308 307 305 303 302 300 298 298 297 296 295
349 350 348 346 341 334 335 338 334 319 314 312 307 310 320 326 333 333 327 325 329 327 318 319 322 324 325 325 325 324 324 322 321 322 326 327 325 324 324 325 327 328 328 329 329 328 328 328 326 324 322 318 316 317 319 320 321 320 319 317 317 317 318 317 318 320 319 318 319 317 311 310 313 312 311 311 310 308 307 305 303 302 303 302 299 297
349 349 347 346 344 338 332 324 318 317 314 310 315 327 335 339 340 337 327 323 325 324 322 324 326 325 326 326 326 326 325 323 322 325 328 328 326 327 328 328 329 329 329 329 328 327 327 323 319 317 315 314 315 319 321 322 322 320 318 317 318 318 318 317 319 319 318 318 319 316 310 311 313 313 314 314 312 311 311 310 308 308 308 305 301 302
348 346 346 345 338 338 333 322 320 323 314 319 332 334 334 332 330 327 322 320 324 327 328 328 327 326 327 327 327 328 328 326 324 325 328 329 328 329 329 329 329 329 329 328 327 324 320 317 314 314 314 316 318 321 323 323 322 321 319 319 321 320 318 318 319 319 318 319 319 316 311 311 313 315 317 317 315 316 316 315 313 311 309 306 304 306
344 343 344 343 338 341 339 322 312 310 307 315 327 331 326 322 324 326 321 318 326 330 329 329 328 327 328 327 328 330 329 324 322 324 328 329 329 330 329 329 330 329 328 326 322 318 315 314 315 316 318 320 321 322 323 323 322 321 321 323 323 320 318 318 319 319 319 319 319 316 312 311 313 316 318 318 318 319 319 318 316 311 309 307 306 307
342 341 343 343 340 341 339 322 310 311 312 311 316 324 324 322 327 332 325 320 327 329 329 329 328 327 327 328 329 329 326 320 319 323 326 327 328 329 329 328 328 327 325 322 318 315 315 316 318 319 321 323 324 323 323 323 322 322 324 325 323 319 317 318 320 320 320 321 321 317 313 313 315 318 320 320 320 320 320 319 317 312 309 307 306 305
341 341 340 338 338 341 340 325 316 317 319 316 318 322 325 328 333 335 322 319 325 327 328 329 327 327 329 329 328 326 323 321 321 323 325 327 328 328 329 328 327 324 322 319 318 318 319 320 321 322 324 326 326 325 325 323 323 324 325 324 322 318 317 319 321 322 322 322 322 318 314 316 318 319 320 321 321 321 321 318 315 312 311 312 310 305
339 337 335 336 339 339 333 323 318 318 322 323 322 324 329 332 332 326 319 321 325 327 328 328 327 328 330 328 326 325 323 324 325 325 327 328 329 329 329 328 326 324 323 322 321 322 323 323 324 325 326 327 326 325 326 324 323 324 324 323 321 318 318 321 322 323 324 325 324 320 318 319 320 320 321 322 323 322 320 318 317 316 316 317 314 305
333 333 335 337 338 334 328 328 322 315 320 324 324 325 329 330 326 322 323 325 327 328 328 329 328 329 329 328 326 326 325 326 328 328 329 330 330 329 328 327 326 325 324 323 324 325 325 324 324 324 325 325 325 324 325 324 322 322 323 322 320 318 319 322 323 323 325 326 324 323 322 320 321 322 323 325 325 323 322 323 324 322 322 323 319 305
333 337 338 336 335 328 318 318 317 315 319 324 324 324 327 330 329 329 329 328 328 330 331 330 329 329 330 329 328 328 328 329 330 331 332 331 330 328 327 326 327 325 324 323 324 324 323 322 322 322 322 323 322 322 323 323 320 320 321 320 319 318 320 323 325 325 327 326 323 323 323 321 322 324 326 328 328 326 326 328 327 327 329 332 328 308
335 335 332 330 330 323 314 315 320 322 322 324 325 328 331 334 335 335 332 329 330 331 332 331 330 330 331 331 331 330 331 332 333 333 331 328 327 327 325 325 325 324 322 321 321 322 322 321 322 322 322 322 322 321 322 321 318 317 319 320 319 318 320 325 327 327 328 325 322 322 323 322 324 328 332 333 331 329 328 329 331 334 337 339 334 306
329 327 327 329 328 325 325 328 330 327 325 327 331 335 336 336 336 336 333 331 331 331 332 332 332 332 333 334 334 333 334 335 334 332 329 326 326 326 325 326 327 327 324 323 322 323 323 322 322 321 320 320 320 320 320 320 316 315 318 320 318 316 319 325 328 328 328 325 321 322 322 322 326 332 337 337 334 332 331 333 337 340 340 340 338 311
331 330 330 332 330 327 329 334 333 328 328 332 336 338 336 336 336 335 333 332 332 332 332 332 333 335 336 337 337 337 337 336 333 330 328 328 328 328 328 330 331 330 328 326 325 324 322 320 320 319 318 319 319 319 318 317 314 314 318 319 315 312 316 324 326 326 328 326 322 322 322 323 328 337 341 339 335 335 335 338 343 344 340 341 346 331
334 332 330 330 329 327 329 333 333 331 333 336 338 337 337 336 335 334 334 333 333 332 332 332 335 337 338 339 339 339 338 336 332 330 330 330 330 331 332 332 332 331 330 329 327 326 325 324 323 323 322 322 322 322 322 320 317 317 319 318 313 309 314 321 324 323 324 325 324 323 324 326 332 338 340 339 337 337 339 342 347 347 343 344 356 7
329 330 330 330 330 331 333 336 335 334 335 338 338 337 336 337 335 334 334 334 333 333 334 334 336 338 340 341 341 339 337 335 333 332 332 333 333 333 333 332 332 331 331 330 329 329 329 328 327 327 326 325 326 327 327 326 324 324 323 320 314 310 314 322 324 321 320 322 324 325 326 329 334 338 339 340 340 340 342 346 349 350 348 347 359 18
330 331 333 333 332 333 337 339 338 334 333 336 338 337 337 337 335 334 334 335 335 336 337 338 338 339 340 342 342 339 336 335 336 336 335 334 333 333 332 332 332 332 331 331 331 332 332 332 332 331 330 330 331 330 330 330 330 328 325 321 316 314 317 323 325 321 319 322 325 327 328 330 334 337 339 341 341 341 345 350 352 352 352 355 7 19
333 334 336 336 334 334 336 339 339 335 332 335 338 337 337 337 336 334 335 336 337 338 340 341 341 341 341 342 342 340 338 337 339 339 336 335 336 335 334 334 334 333 333 333 333 334 335 336 336 334 332 333 334 333 332 332 331 331 330 328 325 320 317 320 323 322 321 324 325 326 328 329 332 336 339 340 340 340 345 353 356 355 356 2 14 24
Height
3125 3124 3122 3120 3118 3117 3116 3114 3113 3112 3111 3110 3108 3106 3104 3101 3099 3098 3096 3093 3090 3088 3087 3086 3084 3082 3080 3078 3077 3075 3074 3072 3071 3069 3067 3066 3064 3063 3062 3060 3059 3058 3056 3055 3054 3053 3052 3050 3049 3048 3047 3045 3044 3042 3041 3039 3037 3036 3034 3032 3030 3027 3025 3023 3021 3019 3017 3015 3013 3011 3010 3008 3007 3005 3002 3001 3000 2998 2997 2995 2994 2993 2991 2990 2989 2988
3125 3123 3121 3121 3120 3119 3117 3116 3114 3113 3112 3110 3108 3106 3105 3101 3099 3098 3096 3093 3090 3088 3087 3085 3084 3081 3080 3078 3076 3075 3074 3072 3070 3069 3067 3065 3064 3063 3062 3061 3060 3058 3057 3055 3054 3052 3051 3050 3048 3047 3045 3044 3042 3040 3038 3037 3035 3033 3030 3028 3026 3023 3021 3019 3017 3014 3012 3010 3008 3006 3005 3003 3001 2999 2997 2996 2994 2993 2991 2990 2989 2987 2986 2984 2983 2982
3124 3122 3122 3122 3121 3119 3118 3117 3115 3114 3112 3110 3108 3106 3103 3101 3097 3096 3096 3094 3091 3088 3086 3084 3083 3081 3079 3077 3076 3074 3073 3072 3070 3068 3067 3065 3064 3063 3062 3061 3059 3057 3056 3054 3052 3050 3048 3047 3045 3044 3042 3041 3039 3036 3034 3032 3030 3027 3025 3023 3021 3018 3016 3014 3011 3009 3007 3005 3003 3001 2999 2997 2995 2993 2992 2990 2988 2987 2986 2984 2983 2981 2980 2979 2977 2976
3124 3123 3124 3123 3121 3120 3119 3118 3117 3115 3113 3110 3108 3105 3103 3101 3098 3094 3093 3093 3092 3088 3085 3083 3081 3079 3078 3076 3075 3073 3072 3071 3069 3067 3066 3065 3063 3062 3061 3059 3057 3055 3054 3052 3050 3048 3045 3043 3041 3039 3037 3036 3034 3032 3030 3027 3024 3022 3020 3017 3015 3013 3011 3009 3006 3004 3002 3000 2998 2996 2994 2992 2990 2988 2986 2985 2983 2981 2980 2978 2976 2975 2974 2973 2971 2970
3125 3125 3125 3123 3122 3121 3119 3118 3117 3114 3112 3110 3108 3105 3103 3100 3099 3096 3092 3091 3090 3088 3085 3082 3079 3077 3077 3076 3074 3073 3072 3070 3068 3067 3066 3064 3063 3061 3060 3058 3055 3053 3051 3049 3047 3045 3043 3041 3039 3036 3034 3032 3030 3028 3025 3023 3020 3017 3015 3013 3011 3009 3007 3005 3003 3001 2999 2997 2994 2992 2990 2988 2986 2984 2982 2980 2978 2976 2974 2972 2971 2969 2968 2966 2965 2964
3127 3126 3125 3124 3122 3121 3120 3118 3115 3113 3111 3109 3107 3106 3104 3101 3099 3096 3093 3091 3089 3087 3085 3082 3079 3076 3075 3075 3073 3072 3071 3070 3068 3066 3065 3064 3062 3060 3059 3056 3054 3052 3050 3048 3045 3043 3041 3039 3036 3033 3031 3028 3026 3023 3021 3019 3017 3014 3012 3010 3008 3006 3004 3002 3000 2998 2996 2994 2991 2989 2987 2985 2983 2981 2979 2977 2974 2972 2970 2968 2966 2964 2963 2961 2959 2958
3128 3127 3125 3124 3123 3121 3120 3117 3114 3112 3110 3109 3107 3106 3104 3101 3099 3096 3093 3091 3089 3087 3085 3084 3083 3078 3074 3074 3073 3071 3070 3069 3067 3066 3064 3063 3061 3059 3057 3055 3053 3051 3048 3046 3044 3041 3039 3036 3033 3029 3026 3023 3021 3019 3018 3016 3014 3012 3010 3007 3005 3003 3001 2999 2997 2995 2993 2991 2989 2986 2984 2982 2980 2978 2976 2974 2971 2969 2967 2965 2962 2960 2958 2956 2954 2952
3129 3127 3126 3125 3123 3121 3118 3116 3114 3113 3111 3109 3108 3106 3103 3101 3099 3096 3093 3091 3089 3087 3085 3084 3084 3080 3074 3073 3072 3070 3069 3067 3066 3066 3064 3062 3060 3058 3056 3053 3051 3049 3047 3045 3041 3038 3035 3031 3027 3024 3021 3018 3016 3014 3013 3012 3011 3009 3006 3004 3002 3000 2998 2996 2994 2992 2990 2988 2986 2984 2981 2979 2977 2974 2972 2971 2968 2966 2964 2961 2959 2957 2954 2952 2950 2948
3129 3127 3126 3124 3122 3120 3117 3116 3115 3113 3112 3110 3108 3105 3103 3100 3098 3095 3093 3091 3088 3086 3085 3084 3084 3081 3075 3072 3072 3070 3067 3066 3065 3064 3063 3061 3059 3057 3055 3053 3050 3047 3044 3039 3035 3031 3028 3024 3020 3017 3015 3013 3011 3010 3009 3007 3006 3004 3003 3001 2999 2997 2995 2992 2991 2988 2986 2984 2982 2980 2977 2975 2973 2971 2968 2966 2965 2962 2960 2957 2955 2953 2951 2948 2946 2944
3129 3127 3126 3124 3122 3121 3120 3119 3117 3114 3113 3110 3108 3106 3103 3100 3097 3094 3092 3090 3087 3086 3085 3084 3084 3083 3077 3070 3070 3069 3067 3066 3064 3062 3061 3060 3059 3057 3055 3051 3046 3041 3037 3032 3028 3025 3021 3017 3015 3014 3012 3010 3009 3007 3005 3004 3002 3000 2998 2997 2995 2993 2991 2989 2986 2984 2982 2979 2977 2975 2972 2970 2968 2966 2964 2962 2960 2958 2956 2953 2952 2949 2947 2945 2943 2941
3129 3128 3126 3124 3123 3123 3122 3120 3117 3115 3113 3110 3108 3104 3101 3099 3095 3093 3092 3089 3087 3086 3085 3084 3083 3085 3080 3071 3069 3070 3068 3066 3062 3059 3057 3055 3054 3052 3049 3043 3038 3035 3032 3028 3026 3023 3019 3017 3015 3012 3010 3008 3007 3004 3003 3000 2998 2995 2993 2991 2990 2988 2986 2983 2981 2979 2977 2975 2972 2970 2967 2965 2963 2961 2959 2957 2955 2953 2951 2949 2947 2945 2943 2941 2939 2937
3129 3128 3127 3125 3124 3123 3122 3120 3119 3116 3114 3111 3109 3104 3100 3096 3092 3091 3089 3088 3088 3086 3085 3084 3082 3084 3080 3072 3070 3071 3068 3064 3059 3055 3053 3050 3048 3046 3042 3038 3034 3032 3029 3026 3024 3021 3018 3015 3012 3008 3006 3004 3002 3000 2999 2996 2994 2991 2989 2986 2984 2982 2980 2977 2975 2973 2971 2969 2967 2965 2963 2960 2958 2955 2953 2951 2950 2948 2945 2943 2941 2940 2938 2937 2935 2933
3130 3129 3128 3126 3124 3123 3121 3119 3118 3116 3114 3111 3108 3104 3101 3098 3095 3092 3090 3089 3089 3086 3085 3084 3083 3081 3076 3071 3071 3069 3065 3062 3058 3054 3051 3047 3045 3042 3039 3036 3033 3030 3027 3024 3021 3017 3014 3010 3006 3004 3001 2999 2997 2995 2993 2991 2989 2987 2984 2982 2979 2977 2974 2971 2969 2966 2965 2963 2961 2959 2957 2955 2952 2950 2948 2946 2944 2942 2940 2937 2935 2934 2932 2931 2929 2928
3130 3129 3128 3127 3125 3123 3121 3118 3116 3114 3113 3111 3108 3106 3105 3104 3104 3101 3096 3094 3090 3084 3082 3083 3082 3078 3073 3071 3070 3066 3062 3061 3057 3053 3050 3046 3042 3039 3036 3033 3030 3027 3023 3020 3017 3014 3011 3007 3003 3000 2996 2994 2991 2989 2987 2985 2983 2981 2979 2977 2974 2972 2970 2967 2963 2960 2958 2956 2955 2952 2950 2948 2946 2944 2942 2940 2938 2936 2934 2932 2929 2928 2926 2924 2923 2922
3131 3129 3128 3127 3126 3124 3122 3120 3118 3115 3113 3112 3110 3109 3108 3108 3109 3106 3100 3096 3091 3084 3080 3081 3080 3075 3071 3070 3067 3062 3058 3056 3053 3051 3048 3044 3040 3037 3033 3030 3026 3022 3019 3016 3013 3010 3007 3004 3000 2997 2993 2990 2987 2984 2982 2980 2977 2975 2973 2970 2968 2966 2964 2961 2958 2955 2952 2950 2948 2946 2943 2941 2939 2936 2935 2933 2932 2930 2928 2926 2924 2922 2920 2918 2917 2915
3135 3133 3130 3128 3127 3125 3123 3121 3119 3117 3114 3113 3111 3110 3109 3108 3108 3104 3099 3095 3093 3089 3081 3077 3075 3071 3071 3069 3065 3061 3056 3052 3050 3046 3043 3039 3036 3033 3030 3026 3023 3019 3016 3013 3009 3006 3003 3000 2997 2994 2990 2987 2984 2981 2978 2975 2973 2970 2968 2965 2963 2961 2958 2956 2952 2948 2945 2943 2941 2939 2937 2934 2932 2930 2928 2926 2925 2923 2922 2920 2918 2916 2914 2912 2911 2910
3135 3133 3131 3129 3127 3125 3123 3121 3119 3117 3115 3113 3111 3110 3108 3106 3104 3102 3098 3093 3093 3090 3081 3075 3070 3067 3067 3065 3060 3058 3054 3049 3046 3042 3038 3035 3031 3029 3026 3022 3020 3016 3012 3009 3005 3002 2999 2996 2993 2990 2986 2983 2979 2976 2973 2971 2968 2964 2962 2959 2956 2955 2953 2950 2947 2943 2940 2937 2935 2932 2930 2928 2925 2923 2921 2919 2917 2916 2914 2913 2912 2910 2908 2906 2905 2903
3134 3131 3130 3129 3127 3125 3123 3121 3120 3118 3116 3113 3111 3110 3107 3105 3103 3101 3097 3093 3092 3089 3079 3072 3068 3063 3062 3058 3052 3051 3049 3045 3042 3038 3035 3032 3028 3025 3022 3018 3015 3012 3008 3005 3002 2999 2995 2991 2987 2983 2980 2976 2973 2970 2967 2964 2961 2958 2955 2951 2948 2946 2944 2942 2939 2936 2933 2930 2928 2926 2924 2921 2918 2916 2913 2911 2910 2908 2907 2906 2905 2903 2902 2900 2898 2897
3133 3129 3127 3128 3126 3124 3122 3121 3119 3117 3116 3114 3112 3110 3107 3105 3102 3100 3098 3093 3091 3087 3077 3070 3067 3062 3059 3053 3048 3046 3043 3040 3038 3035 3032 3028 3024 3021 3017 3014 3010 3007 3004 3000 2996 2993 2989 2985 2980 2976 2972 2969 2965 2962 2958 2955 2952 2950 2947 2943 2940 2937 2935 2932 2930 2927 2924 2921 2918 2916 2915 2913 2910 2908 2905 2904 2902 2900 2899 2898 2897 2895 2894 2893 2892 2890
3133 3129 3126 3126 3126 3124 3121 3119 3117 3116 3115 3113 3111 3109 3107 3106 3102 3099 3096 3092 3089 3085 3076 3069 3064 3060 3055 3051 3048 3045 3041 3038 3035 3032 3029 3026 3022 3018 3014 3010 3006 3003 2999 2995 2991 2987 2982 2978 2974 2970 2965 2961 2958 2954 2950 2947 2943 2940 2938 2935 2932 2929 2926 2924 2921 2918 2915 2912 2909 2906 2904 2902 2901 2899 2897 2896 2894 2892 2891 2890 2888 2887 2886 2885 2884 2883
3133 3131 3126 3123 3124 3123 3120 3119 3117 3115 3114 3111 3109 3107 3105 3103 3101 3097 3092 3089 3087 3082 3075 3070 3063 3056 3053 3050 3047 3044 3041 3038 3034 3030 3027 3024 3020 3016 3011 3006 3002 2998 2994 2990 2986 2982 2977 2972 2968 2964 2960 2956 2952 2948 2944 2941 2937 2934 2931 2927 2924 2921 2919 2916 2914 2911 2907 2904 2901 2899 2896 2894 2892 2890 2889 2887 2886 2884 2882 2881 2880 2878 2877 2876 2876 2875
3133 3131 3126 3122 3121 3121 3120 3119 3117 3115 3113 3111 3107 3105 3104 3101 3099 3096 3090 3085 3084 3079 3074 3070 3062 3053 3051 3049 3045 3042 3040 3036 3033 3029 3024 3020 3016 3012 3008 3003 2998 2994 2990 2986 2981 2976 2972 2967 2962 2958 2955 2951 2947 2942 2938 2935 2931 2927 2924 2921 2918 2915 2913 2910 2907 2904 2901 2897 2895 2892 2890 2887 2885 2883 2880 2879 2878 2876 2874 2872 2871 2869 2868 2867 2867 2866
3132 3130 3127 3123 3122 3122 3121 3118 3116 3114 3112 3110 3107 3104 3103 3100 3098 3096 3089 3084 3081 3075 3071 3070 3061 3051 3049 3047 3043 3041 3038 3035 3031 3027 3021 3016 3012 3008 3003 2999 2994 2990 2986 2981 2977 2972 2967 2963 2958 2954 2950 2946 2941 2937 2933 2929 2925 2921 2918 2915 2912 2909 2907 2904 2901 2898 2895 2892 2889 2886 2884 2881 2879 2876 2873 2871 2869 2868 2866 2864 2862 2861 2859 2858 2858 2857
3132 3130 3127 3122 3119 3119 3118 3117 3115 3113 3110 3107 3105 3103 3100 3098 3096 3094 3089 3084 3079 3072 3069 3069 3060 3050 3048 3047 3043 3039 3035 3031 3027 3022 3016 3010 3006 3003 2999 2994 2990 2985 2980 2976 2971 2967 2963 2958 2954 2949 2944 2940 2935 2931 2926 2922 2919 2916 2912 2910 2907 2903 2901 2898 2895 2892 2889 2886 2883 2881 2878 2876 2873 2869 2866 2864 2862 2860 2859 2857 2855 2854 2851 2850 2849 2848
3133 3131 3129 3124 3119 3115 3113 3111 3110 3108 3107 3104 3103 3101 3098 3095 3092 3088 3085 3083 3079 3073 3071 3069 3058 3049 3049 3046 3041 3036 3032 3027 3023 3018 3013 3007 3002 2998 2994 2989 2985 2980 2974 2970 2966 2962 2957 2953 2948 2943 2938 2933 2928 2924 2920 2916 2912 2909 2906 2903 2900 2897 2894 2891 2888 2885 2882 2879 2876 2874 2872 2870 2867 2864 2860 2857 2855 2854 2852 2851 2849 2847 2845 2843 2841 2839
3133 3132 3130 3129 3127 3123 3119 3115 3112 3108 3105 3103 3102 3099 3095 3091 3088 3084 3082 3081 3078 3074 3071 3066 3055 3047 3047 3044 3037 3033 3027 3021 3017 3014 3009 3004 2999 2993 2989 2983 2979 2974 2969 2965 2960 2956 2951 2947 2943 2938 2933 2928 2924 2919 2914 2910 2907 2903 2900 2897 2893 2890 2887 2883 2880 2877 2874 2871 2868 2866 2864 2863 2860 2857 2854 2852 2850 2848 2846 2844 2843 2841 2839 2837 2834 2832
3131 3131 3130 3130 3130 3128 3124 3120 3116 3112 3107 3102 3099 3096 3092 3088 3086 3083 3081 3080 3078 3073 3067 3063 3055 3045 3041 3038 3032 3027 3023 3017 3013 3008 3004 2999 2995 2990 2984 2979 2974 2969 2965 2960 2956 2951 2947 2942 2938 2933 2928 2924 2919 2915 2910 2906 2902 2898 2894 2890 2887 2884 2880 2877 2873 2869 2866 2864 2861 2859 2857 2855 2853 2850 2848 2845 2843 2841 2839 2838 2836 2834 2832 2830 2828 2826
3131 3129 3128 3127 3126 3124 3121 3117 3114 3111 3106 3101 3096 3093 3089 3087 3084 3081 3079 3078 3077 3071 3061 3057 3054 3044 3037 3034 3028 3023 3019 3014 3009 3005 3000 2995 2990 2985 2980 2975 2970 2965 2961 2957 2952 2947 2942 2936 2931 2926 2922 2918 2914 2909 2905 2901 2897 2893 2889 2885 2882 2878 2875 2871 2867 2864 2861 2858 2855 2853 2850 2848 2846 2843 2841 2838 2836 2834 2832 2830 2829 2827 2826 2824 2822 2820
3131 3128 3126 3123 3121 3119 3118 3114 3111 3107 3103 3098 3094 3090 3087 3084 3081 3078 3077 3075 3074 3070 3060 3053 3049 3041 3035 3031 3026 3021 3017 3011 3006 3002 2997 2992 2986 2981 2976 2970 2966 2961 2956 2951 2946 2941 2936 2930 2925 2920 2916 2912 2907 2903 2899 2895 2891 2887 2883 2880 2876 2873 2870 2866 2862 2859 2856 2853 2850 2847 2844 2841 2838 2835 2833 2831 2829 2827 2825 2823 2822 2820 2819 2818 2816 2814
3130 3127 3124 3120 3116 3115 3114 3111 3107 3105 3101 3095 3091 3088 3086 3083 3080 3077 3075 3072 3070 3067 3059 3051 3043 3038 3035 3030 3024 3019 3014 3008 3003 2997 2992 2987 2980 2975 2969 2964 2959 2954 2949 2944 2939 2933 2928 2923 2918 2914 2909 2905 2901 2897 2892 2888 2884 2881 2877 2874 2870 2867 2864 2861 2857 2853 2850 2847 2844 2841 2837 2834 2831 2828 2826 2825 2823 2821 2819 2817 2815 2813 2812 2810 2809 2807
3129 3126 3123 3118 3113 3110 3109 3107 3104 3102 3097 3091 3088 3087 3084 3081 3077 3074 3071 3068 3064 3060 3054 3047 3040 3035 3033 3029 3022 3016 3011 3004 2998 2992 2986 2981 2975 2968 2963 2957 2952 2947 2942 2937 2931 2926 2921 2916 2911 2907 2903 2899 2894 2890 2887 2883 2879 2875 2872 2868 2865 2862 2858 2855 2851 2847 2844 2840 2837 2834 2830 2827 2824 2822 2820 2818 2816 2814 2813 2811 2809 2807 2805 2803 2802 2800
3129 3125 3122 3118 3111 3106 3106 3103 3100 3098 3093 3088 3086 3084 3081 3077 3073 3070 3068 3065 3061 3055 3047 3043 3037 3031 3027 3023 3017 3011 3005 2998 2991 2985 2980 2975 2970 2963 2957 2952 2947 2941 2935 2929 2924 2919 2914 2909 2904 2900 2896 2892 2888 2884 2881 2878 2874 2870 2866 2863 2859 2856 2853 2849 2845 2841 2838 2835 2831 2828 2824 2820 2818 2816 2814 2812 2810 2808 2806 2804 2802 2800 2798 2797 2795 2793
3128 3124 3121 3117 3111 3105 3103 3100 3096 3093 3089 3085 3084 3082 3078 3076 3072 3067 3064 3062 3060 3055 3048 3040 3034 3028 3023 3017 3009 3002 2996 2990 2983 2978 2974 2970 2965 2959 2952 2947 2942 2935 2929 2924 2918 2913 2908 2903 2899 2895 2890 2887 2883 2879 2876 2873 2870 2865 2861 2857 2853 2850 2847 2843 2839 2835 2832 2829 2825 2822 2818 2815 2812 2810 2808 2806 2804 2802 2800 2798 2796 2794 2792 2790 2789 2787
3126 3123 3120 3117 3111 3104 3101 3098 3094 3090 3087 3085 3085 3082 3078 3075 3070 3064 3060 3058 3057 3055 3049 3041 3033 3027 3020 3013 3005 2997 2990 2985 2978 2973 2971 2967 2962 2956 2949 2943 2937 2930 2924 2918 2912 2907 2903 2898 2895 2890 2886 2882 2878 2875 2871 2868 2865 2860 2856 2852 2848 2845 2841 2837 2833 2830 2826 2823 2819 2816 2813 2810 2808 2805 2803 2801 2799 2796 2794 2792 2790 2788 2786 2784 2782 2780
3125 3121 3118 3116 3111 3104 3100 3097 3093 3089 3087 3086 3084 3081 3078 3075 3071 3064 3058 3057 3056 3051 3045 3038 3030 3023 3017 3009 3002 2994 2986 2979 2971 2966 2965 2963 2958 2954 2947 2938 2932 2925 2919 2913 2907 2902 2899 2895 2891 2886 2881 2878 2874 2870 2867 2863 2859 2854 2850 2846 2843 2839 2836 2831 2827 2824 2821 2817 2814 2810 2808 2806 2803 2801 2798 2796 2794 2791 2789 2787 2785 2783 2781 2778 2776 2775
3123 3120 3116 3114 3111 3105 3100 3099 3096 3091 3087 3084 3082 3080 3077 3072 3068 3061 3051 3050 3053 3049 3040 3034 3026 3018 3012 3004 2997 2989 2980 2972 2963 2958 2958 2957 2952 2949 2942 2933 2927 2921 2915 2910 2905 2900 2896 2892 2887 2882 2877 2873 2870 2866 2862 2857 2853 2848 2844 2841 2837 2834 2830 2826 2823 2820 2816 2812 2809 2806 2803 2802 2799 2797 2794 2792 2789 2787 2784 2782 2779 2777 2775 2773 2771 2769
3122 3119 3116 3113 3111 3108 3103 3100 3096 3091 3086 3083 3081 3079 3075 3069 3066 3061 3048 3041 3047 3046 3037 3029 3020 3011 3005 2998 2990 2983 2973 2962 2953 2950 2951 2950 2945 2941 2935 2928 2922 2916 2910 2906 2901 2897 2893 2888 2884 2879 2874 2870 2865 2861 2856 2851 2847 2843 2839 2835 2832 2828 2825 2821 2818 2815 2811 2807 2804 2801 2799 2798 2795 2793 2790 2788 2785 2782 2780 2777 2774 2772 2770 2768 2766 2763
3121 3118 3116 3114 3111 3110 3105 3098 3093 3089 3085 3082 3079 3077 3075 3070 3067 3065 3052 3040 3040 3040 3032 3024 3014 3005 2998 2990 2983 2977 2966 2953 2942 2939 2942 2941 2936 2932 2926 2920 2916 2910 2905 2900 2895 2890 2887 2883 2878 2874 2869 2864 2859 2855 2851 2847 2842 2838 2833 2830 2826 2823 2820 2817 2814 2810 2806 2803 2800 2797 2795 2794 2791 2789 2786 2784 2781 2778 2775 2772 2769 2767 2765 2762 2760 2758
3120 3117 3115 3113 3110 3108 3106 3099 3094 3089 3084 3080 3077 3074 3073 3068 3062 3058 3048 3038 3035 3032 3026 3019 3010 3001 2993 2986 2978 2973 2966 2953 2936 2928 2931 2932 2928 2924 2918 2912 2908 2904 2899 2896 2891 2885 2880 2875 2871 2867 2863 2858 2853 2849 2845 2841 2837 2832 2828 2824 2821 2818 2815 2812 2809 2805 2802 2798 2796 2793 2791 2790 2788 2786 2783 2780 2777 2774 2770 2767 2764 2762 2760 2757 2754 2752
3118 3115 3112 3111 3109 3107 3105 3100 3094 3089 3085 3081 3076 3072 3069 3064 3057 3050 3039 3030 3028 3026 3021 3014 3006 2998 2991 2984 2976 2970 2967 2959 2943 2928 2925 2924 2920 2917 2913 2906 2901 2897 2893 2889 2886 2881 2875 2870 2865 2860 2856 2852 2847 2843 2839 2835 2831 2827 2823 2820 2817 2814 2811 2808 2804 2801 2797 2794 2792 2789 2788 2786 2784 2782 2779 2776 2772 2769 2766 2763 2760 2757 2754 2751 2748 2745
3116 3113 3111 3109 3107 3105 3103 3099 3092 3087 3083 3079 3074 3070 3065 3057 3052 3048 3040 3030 3026 3022 3017 3010 3003 2996 2989 2981 2975 2968 2963 2958 2949 2935 2927 2921 2914 2909 2906 2901 2895 2891 2887 2882 2878 2874 2869 2864 2860 2856 2852 2848 2843 2839 2835 2830 2826 2822 2819 2816 2813 2810 2807 2804 2800 2797 2793 2790 2788 2786 2784 2783 2781 2778 2775 2772 2768 2765 2762 2759 2756 2752 2748 2745 2741 2738
3116 3113 3110 3108 3106 3103 3101 3098 3091 3083 3081 3078 3072 3066 3062 3055 3050 3047 3041 3033 3027 3020 3013 3006 3000 2993 2987 2979 2973 2966 2957 2951 2945 2936 2927 2920 2912 2904 2898 2893 2888 2883 2879 2875 2871 2867 2862 2857 2853 2850 2846 2843 2839 2835 2831 2826 2822 2819 2816 2813 2810 2807 2804 2800 2797 2793 2790 2787 2785 2783 2781 2780 2778 2775 2772 2768 2765 2761 2758 2755 2751 2747 2743 2738 2733 2728
3118 3114 3110 3107 3105 3102 3099 3097 3091 3081 3076 3074 3068 3061 3059 3057 3052 3044 3036 3029 3024 3017 3009 3002 2995 2989 2984 2976 2968 2961 2953 2945 2938 2931 2923 2916 2909 2902 2895 2889 2883 2878 2873 2869 2864 2861 2856 2851 2846 2843 2840 2836 2833 2830 2826 2822 2818 2815 2812 2809 2806 2803 2800 2797 2793 2790 2787 2784 2781 2780 2778 2776 2774 2771 2768 2765 2762 2758 2754 2750 2746 2742 2738 2732 2725 2720
3118 3115 3111 3107 3105 3102 3098 3096 3093 3084 3076 3073 3068 3061 3057 3054 3049 3041 3030 3022 3017 3012 3006 2998 2990 2985 2980 2972 2963 2955 2948 2939 2932 2925 2918 2911 2905 2899 2893 2887 2882 2876 2870 2865 2860 2856 2852 2846 2841 2837 2834 2831 2828 2825 2822 2818 2814 2811 2808 2805 2803 2799 2796 2793 2790 2787 2784 2782 2779 2777 2776 2773 2771 2768 2765 2762 2758 2755 2750 2745 2741 2737 2733 2726 2719 2717
3118 3116 3114 3110 3106 3102 3096 3092 3089 3083 3075 3071 3067 3060 3053 3047 3042 3036 3028 3018 3010 3006 3001 2994 2986 2979 2974 2968 2959 2950 2942 2935 2927 2920 2914 2907 2901 2896 2890 2884 2879 2874 2868 2863 2858 2853 2849 2843 2837 2832 2828 2825 2823 2820 2817 2814 2810 2806 2803 2801 2799 2796 2792 2790 2787 2784 2781 2779 2776 2774 2772 2770 2768 2765 2762 2759 2756 2751 2746 2742 2738 2733 2727 2722 2717 2716
3119 3116 3113 3109 3104 3098 3091 3086 3084 3079 3072 3067 3062 3056 3048 3041 3035 3029 3022 3014 3006 3000 2995 2990 2982 2974 2968 2962 2954 2945 2937 2930 2922 2915 2910 2903 2896 2891 2886 2880 2875 2870 2864 2859 2853 2849 2844 2838 2833 2828 2823 2820 2817 2815 2812 2809 2806 2802 2799 2797 2794 2792 2789 2786 2784 2781 2778 2776 2774 2772 2769 2767 2764 2762 2759 2756 2753 2749 2744 2740 2735 2730 2724 2719 2716 2714
3117 3112 3108 3105 3101 3093 3084 3079 3076 3071 3066 3060 3054 3048 3043 3036 3030 3024 3017 3009 3002 2995 2989 2984 2978 2971 2963 2956 2948 2939 2931 2925 2918 2910 2904 2898 2892 2886 2881 2875 2869 2864 2859 2853 2848 2843 2838 2832 2827 2823 2818 2814 2811 2808 2806 2803 2801 2798 2795 2793 2790 2787 2785 2783 2781 2778 2776 2773 2771 2768 2766 2764 2761 2759 2756 2753 2750 2746 2742 2738 2734 2728 2723 2718 2715 2713
3114 3110 3105 3101 3098 3092 3084 3076 3069 3063 3060 3056 3049 3041 3036 3030 3023 3018 3013 3006 2999 2992 2985 2978 2973 2967 2959 2951 2943 2934 2926 2920 2915 2907 2899 2893 2887 2881 2876 2870 2864 2858 2853 2848 2843 2838 2832 2827 2822 2817 2813 2809 2805 2802 2800 2797 2795 2793 2790 2788 2786 2784 2781 2779 2778 2776 2773 2771 2768 2765 2763 2761 2758 2756 2754 2751 2747 2744 2740 2737 2732 2728 2722 2718 2715 2713
3113 3109 3103 3097 3091 3086 3081 3074 3064 3053 3049 3049 3045 3038 3033 3027 3019 3012 3008 3002 2995 2988 2980 2973 2967 2961 2955 2947 2939 2930 2922 2916 2910 2903 2895 2889 2883 2877 2871 2865 2859 2854 2848 2842 2837 2832 2827 2822 2817 2813 2808 2804 2801 2797 2795 2793 2790 2788 2786 2784 2782 2780 2778 2776 2774 2773 2771 2768 2765 2763 2761 2758 2756 2754 2752 2749 2745 2742 2739 2735 2731 2727 2723 2719 2716 2714
3112 3107 3101 3093 3086 3080 3076 3072 3065 3053 3043 3040 3039 3034 3030 3024 3017 3009 3003 2998 2991 2984 2976 2968 2961 2954 2949 2942 2935 2927 2919 2912 2905 2898 2892 2886 2880 2874 2868 2861 2855 2849 2844 2838 2832 2828 2823 2818 2814 2809 2804 2800 2797 2794 2791 2789 2786 2784 2782 2781 2779 2777 2775 2773 2771 2770 2768 2766 2763 2761 2758 2756 2754 2753 2750 2747 2744 2741 2739 2735 2731 2726 2723 2719 2717 2716
3111 3106 3101 3094 3086 3080 3075 3072 3068 3060 3048 3040 3036 3033 3027 3021 3014 3007 3001 2994 2987 2980 2973 2965 2956 2948 2941 2936 2931 2925 2916 2908 2900 2894 2887 2882 2876 2870 2864 2858 2851 2844 2838 2832 2827 2822 2818 2814 2810 2805 2801 2797 2793 2790 2788 2785 2783 2781 2779 2778 2776 2774 2772 2770 2768 2767 2765 2763 2761 2759 2756 2754 2752 2750 2748 2745 2742 2739 2737 2735 2731 2727 2723 2720 2719 2717